Kingman, AZ

12:39 AM MST on May 23, 2018 (GMT -0700)
Kingman

Weather History for KIGM - December, 2013

Change the Weather History Date:

Friday, December 20, 2013

  Actual Average Record
Temperature  
Mean Temperature 41 °F 42 °F  
Max Temperature 53 °F 53 °F 74 °F (1917)
Min Temperature 29 °F 31 °F 17 °F (2006)
Degree Days  
Heating Degree Days 24 23  
Month to date heating degree days 505 433  
Since 1 July heating degree days 1138 999  
Cooling Degree Days 0 0  
Month to date cooling degree days 0 0  
Year to date cooling degree days 2106 2093  
Moisture  
Dew Point 27 °F    
Average Humidity 62    
Maximum Humidity 89    
Minimum Humidity 35    
Precipitation  
Precipitation 0.00 in 0.02 in 0.97 in (1909)
Month to date precipitation 0.04 0.46  
Year to date precipitation 6.72 8.11  
Sea Level Pressure  
Sea Level Pressure 29.70 in    
Wind  
Wind Speed 9 mph (NE)    
Max Wind Speed 21 mph    
Max Gust Speed 25 mph    
Visibility 10 miles    
Events      
T = Trace of Precipitation, MM = Missing Value Source: NWS Daily Summary

Daily Weather History Graph

Daily Weather History Graph

Search for Another Location

Airport or City:

Astronomy

Dec. 20, 2013 Rise Set
Actual Time 7:40 AM MST 5:26 PM MST
Civil Twilight 7:11 AM MST 5:55 PM MST
Nautical Twilight 6:40 AM MST 6:27 PM MST
Astronomical Twilight 6:09 AM MST 6:58 PM MST
Moon 8:45 PM MST (12/20) 9:42 AM MST (12/20)
Length of Visible Light 10h 43m
Length of Day
9h 46m
Waning Gibbous, 90% of the Moon is Illuminated
Dec 20
Waning Gibbous
Dec 25
Last Quarter
Jan 1
New
Jan 7
First Quarter
Jan 15
Full

Hourly Weather History & Observations

Time (MST) Temp. Windchill Dew Point Humidity Pressure Visibility Wind Dir Wind Speed Gust Speed Precip Events Conditions
12:51 AM 30.0 °F - 27.0 °F 88% 29.66 in 10.0 mi Calm Calm - N/A   Partly Cloudy
1:51 AM 28.9 °F - 25.0 °F 85% 29.65 in 10.0 mi Calm Calm - N/A   Clear
2:51 AM 34.0 °F 28.0 °F 28.9 °F 82% 29.64 in 10.0 mi East 6.9 mph - N/A   Mostly Cloudy
3:51 AM 37.0 °F 32.4 °F 30.9 °F 79% 29.64 in 10.0 mi ENE 5.8 mph - N/A   Mostly Cloudy
4:51 AM 37.9 °F 33.5 °F 30.9 °F 76% 29.63 in 10.0 mi NE 5.8 mph - N/A   Mostly Cloudy
5:51 AM 33.1 °F 26.1 °F 30.0 °F 89% 29.64 in 10.0 mi East 8.1 mph - N/A   Clear
6:51 AM 34.0 °F 26.6 °F 30.0 °F 85% 29.65 in 10.0 mi ENE 9.2 mph - N/A   Clear
7:51 AM 34.0 °F 26.6 °F 30.9 °F 89% 29.68 in 10.0 mi ENE 9.2 mph - N/A   Clear
8:51 AM 39.0 °F 32.3 °F 30.0 °F 70% 29.70 in 10.0 mi ENE 10.4 mph - N/A   Clear
9:51 AM 43.0 °F 36.4 °F 30.0 °F 60% 29.72 in 10.0 mi NE 12.7 mph - N/A   Clear
10:51 AM 46.0 °F 40.6 °F 30.0 °F 54% 29.72 in 10.0 mi North 11.5 mph - N/A   Clear
11:51 AM 48.9 °F - 30.0 °F 48% 29.70 in 10.0 mi North 10.4 mph - N/A   Clear
12:51 PM 51.1 °F - 28.9 °F 43% 29.69 in 10.0 mi North 12.7 mph - N/A   Clear
1:51 PM 52.0 °F - 28.0 °F 40% 29.68 in 10.0 mi NNE 16.1 mph - N/A   Clear
2:51 PM 52.0 °F - 27.0 °F 38% 29.67 in 10.0 mi North 17.3 mph - N/A   Clear
3:51 PM 51.1 °F - 24.1 °F 35% 29.66 in 10.0 mi North 17.3 mph - N/A   Clear
4:51 PM 48.0 °F - 23.0 °F 37% 29.68 in 10.0 mi North 12.7 mph - N/A   Clear
5:51 PM 44.1 °F 39.0 °F 23.0 °F 43% 29.72 in 10.0 mi North 9.2 mph - N/A   Clear
6:51 PM 41.0 °F 35.8 °F 21.9 °F 47% 29.74 in 10.0 mi East 8.1 mph - N/A   Clear
7:51 PM 37.9 °F 32.1 °F 21.9 °F 53% 29.76 in 10.0 mi ESE 8.1 mph - N/A   Clear
8:51 PM 37.0 °F 31.6 °F 21.9 °F 54% 29.77 in 10.0 mi East 6.9 mph - N/A   Clear
9:51 PM 34.0 °F 26.6 °F 21.9 °F 61% 29.76 in 10.0 mi ESE 9.2 mph - N/A   Clear
10:51 PM 37.9 °F 31.5 °F 21.9 °F 53% 29.77 in 10.0 mi ENE 9.2 mph - N/A   Clear
11:51 PM 36.0 °F 29.0 °F 21.0 °F 55% 29.76 in 10.0 mi East 9.2 mph - N/A   Clear